Location: Clover
(42.5131°N, 114.6874°W)
Time: 12:48:17
(UTC+00:00)

ARIANE 6 FM1 Upper Stage - Pass Details

Date: 26 January 2026
Orbit: 522 x 609 km, 62.0° (Epoch: 11 February)

Event Time Altitude Azimuth Distance (km) Brightness Sun altitude
Rises 01:30:30 0° 217° (SW) 2,717 7.2 -8.9°
Reaches altitude 10° 01:32:43 10° 218° (SW) 1,813 6.2 -9.3°
Maximum altitude 01:36:48 86° 307° (NW) 544 2.6 -10.0°
Drops below altitude 10° 01:40:49 10° 37° (NE) 1,783 4.7 -10.7°
Enters shadow 01:40:54 10° 37° (NE) 1,818 4.8 -10.7°
